Regional Weather Roundup
Issued by NWS

Home | Current Version | Previous Version | Text Only | Print | Product List | Glossary Off
Versions: 1 2 3 4 5 6 7 8 9 10 11 12 13 14 15 16 17 18 19 20 21 22 23 24 25 26 27 28 29 30 31 32 33 34 35 36 37 38 39 40 41 42 43 44 45 46 47 48 49 50

000
ASUS43 KLMK 192202
RWRKY
KENTUCKY REGIONAL WEATHER ROUNDUP
NATIONAL WEATHER SERVICE LOUISVILLE KY
600 PM EDT TUE AUG 19 2014

NOTE "FAIR" INDICATES FEW OR NO CLOUDS BELOW 12,000 FEET
WITH NO SIGNIFICANT WEATHER AND/OR OBSTRUCTIONS TO VISIBILITY.

KYZ001>023-026-027-061>063-070>075-192300-
WESTERN AND SOUTH CENTRAL KENTUCKY

CITY           SKY/WX    TMP DP  RH WIND       PRES   REMARKS
PADUCAH        TSTM      81  69  67 VRB3G30   29.81F
HENDERSON      PTSUNNY   88  73  62 SW6       29.79S HX  96
OWENSBORO      PTSUNNY   88  74  63 SW10      29.80S HX  96
HOPKINSVILLE   PTSUNNY   89  74  60 SW13      29.83F HX  98
BOWLING GREEN  MOSUNNY   89  68  49 VRB5      29.83F HX  93
GLASGOW        NOT AVBL
$$

KYZ024-025-028>034-038-045-046-053-192300-
NORTH CENTRAL KENTUCKY

CITY           SKY/WX    TMP DP  RH WIND       PRES   REMARKS
LOUISVILLE/SDF SUNNY     87  69  54 SW10      29.81S HX  91
LOUISVILLE/LOU PTSUNNY   87  68  52 W9        29.82S HX  90
FORT KNOX      SUNNY     85  70  60 S8        29.83R
$$

KYZ035>037-039>044-047>052-055>060-089>105-192300-
NORTHEAST KENTUCKY

CITY           SKY/WX    TMP DP  RH WIND       PRES   REMARKS
LEXINGTON      SUNNY     85  69  58 W8        29.85F
COVINGTON      MOSUNNY   86  66  51 SW8       29.82F
FRANKFORT      SUNNY     85  70  60 SW7       29.82F
$$

KYZ054-064>069-076>088-106>120-192300-
SOUTHEAST KENTUCKY

CITY           SKY/WX    TMP DP  RH WIND       PRES   REMARKS
JACKSON        SUNNY     83  69  62 CALM      29.88F
LONDON         MOSUNNY   85  68  56 W10       29.88F
SOMERSET       MOSUNNY   82  68  61 W7        29.88S
MIDDLESBORO    MOSUNNY   85  66  53 W6        29.89S
MONTICELLO     PTCLDY    86  71  60 W5        29.89S HX  91
$$



USA.gov is the U.S. government's official web portal to all federal, state and local government web resources and services.